This is the latest recevied weather packets stored in our database for station/object HB9EYW-6. If no packets are shown the sender has not sent any weather packets the latest 10 day(s).
| Time | Temp. | Humidity | Pressure | Rain* | Wind** | Luminosity | Snow |
|---|---|---|---|---|---|---|---|
| 1778165104 | 17.78° C | 42% | 0 hPa | 0 mm | - | - | - |
| 1778164804 | 17.78° C | 40% | 0 hPa | 0 mm | - | - | - |
| 1778164504 | 17.78° C | 40% | 0 hPa | 0 mm | - | - | - |
| 1778164204 | 17.78° C | 36% | 0 hPa | 0 mm | - | - | - |
| 1778163904 | 18.33° C | 35% | 0 hPa | 0 mm | - | - | - |
| 1778163604 | 18.33° C | 34% | 0 hPa | 0 mm | - | - | - |
| 1778163304 | 18.89° C | 33% | 0 hPa | 0 mm | - | - | - |
| 1778163004 | 19.44° C | 26% | 0 hPa | 0 mm | - | - | - |
| 1778162704 | 18.89° C | 30% | 0 hPa | 0 mm | - | - | - |
| 1778162404 | 18.89° C | 30% | 0 hPa | 0 mm | - | - | - |
| 1778162104 | 18.33° C | 29% | 0 hPa | 0 mm | - | - | - |
| 1778161804 | 18.33° C | 29% | 0 hPa | 0 mm | - | - | - |
| 1778161504 | 18.33° C | 29% | 0 hPa | 0 mm | - | - | - |
| 1778161204 | 18.89° C | 28% | 0 hPa | 0 mm | - | - | - |
| 1778160904 | 18.89° C | 29% | 0 hPa | 0 mm | - | - | - |
| 1778160604 | 18.89° C | 30% | 0 hPa | 0 mm | - | - | - |
| 1778160304 | 18.89° C | 32% | 0 hPa | 0 mm | - | - | - |
| 1778160004 | 18.33° C | 32% | 0 hPa | 0 mm | - | - | - |
| 1778159704 | 18.33° C | 30% | 0 hPa | 0 mm | - | - | - |
| 1778159404 | 19.44° C | 28% | 0 hPa | 0 mm | - | - | - |
| 1778159104 | 19.44° C | 29% | 0 hPa | 0 mm | - | - | - |
| 1778158804 | 19.44° C | 29% | 0 hPa | 0 mm | - | - | - |
| 1778158504 | 18.89° C | 28% | 0 hPa | 0 mm | - | - | - |
| 1778158204 | 18.89° C | 31% | 0 hPa | 0 mm | - | - | - |
| 1778157904 | 20° C | 31% | 0 hPa | 0 mm | - | - | - |
* Rain latest hour (hover to see other rain measurements)
** Current wind speed in m/s (hover to see current wind gust speed)